Temp
18 18 19 19 19 19 18 18 18 18 18 18 19 19 19 19 20 20 20 20 20 20 20 20 20 20 20 20 20 20 20 21 21 18 16 15 15 16 17 18 19 21 22 22 23 22 20 18 18 19 19 17 15 15 15 13 13 15 15 13 13 13 13 13 12 12 12 11 10 10 10 10 10 10 9 9 9 9 9 9 8 8 8 8 9 9 9 10
18 18 18 19 19 19 19 18 18 18 18 19 19 20 20 19 20 20 21 21 21 20 20 20 20 20 20 20 20 20 20 22 20 17 16 16 16 18 19 20 21 22 22 22 22 21 19 17 16 17 17 15 14 15 15 14 13 13 13 13 12 12 11 11 11 11 11 11 10 10 10 10 9 9 9 10 9 9 10 10 9 9 9 9 9 10 10 10
18 18 18 19 19 19 19 19 19 18 19 19 19 20 20 20 19 20 21 21 21 21 21 20 20 20 20 20 20 20 21 21 19 16 16 16 17 18 19 20 21 22 22 22 22 20 18 17 16 16 16 14 14 14 14 13 13 12 12 12 10 10 10 10 11 11 10 10 10 10 9 10 9 9 10 10 9 9 10 10 10 10 10 10 10 10 10 10
18 18 18 18 19 19 19 19 19 19 19 19 19 19 20 20 19 19 20 21 21 21 21 20 20 20 20 20 20 20 20 20 18 16 16 16 17 18 19 20 20 21 22 21 21 20 18 17 16 15 15 14 13 14 13 12 13 11 11 11 10 10 11 10 10 10 10 10 10 10 10 10 9 9 9 10 10 10 9 9 10 10 10 10 9 10 10 10
19 19 19 19 19 19 19 19 19 19 19 19 19 19 19 19 20 19 19 20 20 20 20 20 20 20 20 21 21 21 21 20 18 16 16 16 17 18 19 19 20 21 21 21 20 19 19 17 15 15 14 13 14 14 12 11 12 11 9 10 10 10 10 9 9 10 9 10 10 10 11 10 9 9 8 9 11 10 10 10 9 9 10 9 8 9 10 10
19 19 19 19 19 18 18 18 19 19 19 19 19 19 19 19 20 20 19 19 19 19 19 20 20 20 20 20 21 20 19 19 16 15 16 16 18 18 19 19 19 20 21 21 19 18 18 15 15 15 12 11 12 12 12 11 12 11 10 9 10 10 10 9 10 9 10 11 11 10 10 9 10 10 8 9 10 10 9 8 8 8 9 9 8 9 9 9
18 19 19 19 19 18 18 19 19 19 19 19 19 19 19 19 20 20 19 19 20 20 20 20 20 20 20 20 20 18 16 16 15 15 16 17 18 18 18 19 19 21 21 20 17 16 15 15 14 13 12 12 11 11 11 11 11 11 10 9 9 9 9 9 9 9 10 11 10 10 10 9 10 11 9 9 10 10 8 7 7 8 9 9 8 8 9 9
18 18 18 18 19 18 19 19 19 19 19 19 19 19 19 19 20 20 20 20 20 21 20 20 20 20 20 20 19 16 14 15 15 15 16 17 18 19 19 19 20 21 20 18 16 16 15 15 14 13 13 13 12 12 13 12 11 10 10 9 9 9 8 8 9 9 10 9 9 10 10 9 9 9 10 10 11 9 7 7 8 9 10 8 7 8 9 10
17 18 18 18 19 19 19 19 19 19 19 19 19 19 19 18 19 20 20 20 21 21 21 20 20 20 20 20 18 16 15 15 15 15 17 18 18 19 20 19 20 21 18 17 17 17 16 15 14 14 13 12 13 13 13 14 12 10 9 9 9 9 8 9 9 9 10 9 10 11 10 9 8 8 10 10 10 7 6 8 6 7 11 8 6 8 9 9
17 18 18 18 18 19 19 19 19 19 18 19 19 19 19 19 18 19 20 21 21 21 20 20 20 21 20 18 17 16 15 16 16 16 17 18 19 20 20 18 19 20 17 15 16 15 16 15 14 14 13 12 12 11 12 13 11 9 8 9 9 9 9 10 10 10 10 10 10 11 10 10 9 9 11 11 9 7 8 11 7 8 12 9 6 8 9 9
18 18 18 18 18 18 19 19 19 19 19 19 19 19 20 19 19 19 20 20 20 20 20 20 20 21 18 16 16 16 16 16 16 16 16 18 19 19 19 18 18 18 16 14 14 15 15 15 14 14 14 12 11 10 10 10 10 9 10 10 10 10 11 10 11 10 10 10 10 10 10 9 9 10 11 11 9 8 10 12 10 10 12 10 6 7 9 9
18 18 18 18 18 18 18 19 20 20 19 19 19 19 20 20 19 19 20 20 20 19 20 20 20 19 18 16 15 15 15 16 16 16 16 17 17 17 17 18 18 18 17 14 13 15 15 15 15 15 14 12 11 11 11 10 11 11 11 11 11 11 12 11 11 10 10 11 9 9 11 11 11 11 11 10 8 9 10 11 11 11 10 10 7 6 8 9
18 18 18 18 18 18 18 19 20 20 20 20 19 19 20 20 20 20 20 20 20 20 20 20 19 19 18 16 15 15 16 16 17 17 16 16 16 16 16 17 17 17 17 15 13 15 15 15 15 14 13 12 11 12 11 10 12 12 11 11 11 12 12 11 11 10 11 10 8 10 13 14 12 11 11 9 8 10 11 11 11 11 10 10 9 7 7 8
18 18 18 19 19 18 18 19 20 20 20 20 20 20 20 20 20 20 20 20 20 20 20 19 20 19 17 16 16 16 16 17 18 17 17 17 16 17 16 16 17 16 16 15 15 15 15 15 15 13 12 11 11 12 12 11 12 11 11 11 11 12 13 11 10 10 12 10 8 11 13 14 12 11 11 8 8 10 11 11 11 11 10 9 9 9 8 8
18 18 19 20 20 19 18 18 19 20 20 20 20 20 20 20 20 20 20 20 20 20 19 19 20 19 17 16 16 17 17 17 17 16 16 17 17 17 17 17 17 16 17 16 16 16 15 16 15 13 12 12 12 13 13 12 12 10 13 13 11 12 13 11 9 9 11 10 9 11 13 14 12 11 11 7 8 10 10 11 11 10 10 9 9 9 9 8
18 18 19 19 20 20 19 18 18 19 20 20 20 20 20 20 20 20 20 20 20 20 20 19 19 19 18 16 17 17 16 16 16 15 16 17 17 17 17 17 17 18 18 17 17 17 16 15 12 11 13 12 12 14 14 14 13 11 13 14 11 12 13 12 11 8 10 11 10 11 12 13 12 11 10 8 8 10 10 11 11 10 10 9 9 9 9 8
18 18 19 19 19 20 20 19 18 18 19 20 20 20 20 20 20 21 21 20 20 20 20 19 17 18 18 16 17 16 15 15 15 15 16 16 17 17 18 18 17 17 18 18 18 16 14 13 12 11 11 10 9 13 17 16 16 13 12 12 10 11 12 12 12 10 9 11 11 11 11 13 13 11 11 9 8 10 10 11 11 10 10 9 9 9 9 9
19 19 19 19 19 19 20 20 19 19 19 19 20 20 20 20 20 21 20 20 20 20 21 18 17 19 18 16 16 15 14 14 14 15 16 16 16 17 17 16 15 17 18 18 17 14 12 12 12 12 11 9 8 12 18 17 16 16 14 14 12 10 11 11 12 11 10 12 12 12 12 13 13 12 12 10 7 9 10 10 10 9 10 9 9 9 9 9
19 19 19 19 20 20 21 21 21 20 19 20 20 20 20 19 19 20 17 18 18 19 19 15 15 18 17 15 14 14 14 14 14 14 15 16 16 16 16 14 13 15 18 17 15 13 12 12 12 12 11 9 7 9 13 14 14 15 13 13 13 12 12 11 11 10 9 11 12 12 12 12 13 12 13 11 8 9 10 9 10 10 10 10 10 9 9 9
20 20 20 20 20 20 21 22 22 21 21 20 20 20 20 19 18 17 14 13 13 13 14 13 13 15 15 14 13 14 15 15 15 14 14 15 15 16 14 14 15 14 14 14 15 13 11 12 11 9 9 7 7 6 7 9 10 12 12 12 12 12 13 11 11 10 8 11 12 10 11 11 12 13 13 11 8 10 11 10 11 10 10 10 10 10 9 9
20 20 20 20 20 20 20 22 22 22 21 20 20 20 19 19 18 17 13 13 11 10 12 12 12 14 14 13 12 13 14 16 15 13 14 14 14 17 14 13 18 16 11 10 12 12 12 12 10 8 7 5 5 6 7 9 10 12 13 13 12 12 13 11 11 10 8 11 12 10 11 12 13 14 12 10 10 12 12 11 11 11 10 9 9 10 9 8
20 20 20 20 20 20 20 21 22 22 21 20 20 18 15 16 18 16 15 15 14 12 12 12 12 13 13 13 13 12 13 16 16 14 14 14 15 17 14 12 15 14 10 11 14 14 12 12 10 7 6 6 6 6 8 11 11 12 12 13 13 11 11 12 11 10 8 11 13 11 11 13 12 12 12 10 11 12 11 10 10 10 10 10 9 9 9 8
20 20 20 20 20 20 20 20 21 21 20 20 18 16 14 15 16 16 16 17 15 13 13 14 14 14 14 14 13 13 14 14 15 14 12 14 14 14 13 12 12 11 10 13 16 16 14 12 8 6 5 7 9 8 11 13 11 11 12 14 14 11 11 14 13 10 9 9 11 11 11 12 11 11 12 10 9 10 9 8 8 7 8 10 9 8 7 9
20 20 20 20 20 20 20 20 20 20 20 19 16 15 15 16 16 16 16 17 17 15 13 12 13 14 14 14 13 14 14 12 12 13 12 12 13 12 12 12 12 11 9 10 12 13 12 9 6 6 6 8 12 11 11 13 13 10 10 12 13 11 11 12 11 10 10 9 9 11 13 14 12 13 14 10 7 9 9 8 10 9 7 7 7 7 6 7
20 20 20 20 20 21 20 20 20 19 18 17 16 15 16 16 15 16 17 18 19 17 14 13 13 14 13 13 14 13 13 13 12 12 11 11 11 12 12 10 12 12 9 9 11 11 10 7 5 8 9 10 12 11 8 10 13 12 10 9 9 10 10 10 11 11 13 13 9 10 15 17 14 13 14 11 10 12 10 10 12 12 9 8 9 9 9 7
20 20 20 20 20 20 20 20 18 18 18 16 15 16 16 16 16 16 19 20 20 18 16 17 16 16 15 14 12 10 13 15 12 11 11 11 11 12 13 11 11 12 9 9 11 11 10 7 6 9 11 11 12 10 7 7 13 14 10 7 7 8 10 11 12 12 14 14 10 9 14 16 14 15 13 10 10 12 11 12 13 12 12 11 11 11 10 10
20 20 20 20 20 20 21 20 18 18 19 17 16 16 16 16 16 16 19 21 19 17 17 18 17 16 16 13 10 12 17 16 13 12 11 11 11 11 15 13 12 11 7 9 13 12 10 10 9 10 11 12 12 11 7 7 12 13 8 6 7 9 10 10 11 13 12 12 10 9 12 13 14 15 11 8 11 13 12 13 13 13 13 12 12 11 11 11
20 20 20 20 20 21 21 20 19 18 18 18 16 16 16 16 16 18 21 21 19 17 17 17 17 16 15 13 11 13 15 13 15 15 11 12 12 12 14 11 10 10 6 11 16 11 9 11 10 10 12 12 11 9 7 6 11 11 6 6 7 8 9 9 10 13 10 11 13 11 10 12 14 14 10 9 12 14 13 14 14 14 13 12 12 11 12 11
19 20 20 20 20 20 20 20 20 18 18 18 17 17 17 16 17 20 22 20 18 17 16 16 17 15 13 14 13 12 12 12 14 13 10 12 12 11 12 10 9 10 7 10 14 10 8 8 8 9 11 11 9 7 6 7 9 8 5 6 7 6 7 8 10 12 10 12 15 11 10 13 15 15 13 12 13 14 14 13 13 13 12 11 12 11 11 12
19 19 19 19 20 19 19 19 18 18 17 17 17 17 16 17 19 21 21 19 18 17 15 15 16 13 13 16 16 12 12 12 10 11 11 12 12 10 9 9 10 11 10 10 10 9 7 6 6 8 9 8 7 6 5 6 7 6 6 8 9 8 8 8 9 11 13 15 14 10 9 12 15 16 15 14 14 14 14 13 13 12 12 11 12 12 11 11
19 19 19 19 19 19 19 18 17 17 17 17 17 16 17 19 20 21 20 17 17 16 15 15 13 12 13 15 15 12 13 12 10 12 13 12 12 11 10 11 12 13 14 12 11 9 8 8 8 7 6 6 7 7 5 5 5 6 8 10 12 12 11 11 11 11 15 17 13 9 9 10 14 16 16 15 13 12 13 13 13 13 13 12 12 12 11 10
18 18 19 19 19 19 19 17 16 16 17 17 17 17 20 21 20 20 18 16 17 16 15 14 12 12 12 13 13 11 12 13 10 10 11 10 10 9 9 11 11 15 18 15 13 12 10 10 8 7 6 6 8 10 8 7 7 8 10 11 14 16 15 16 16 14 16 15 10 8 9 11 13 15 15 15 13 12 12 12 13 13 12 13 12 12 11 8
17 17 18 19 18 18 17 16 16 16 17 17 17 19 22 22 20 17 15 16 16 13 12 12 11 11 12 14 13 10 11 12 11 9 8 9 10 8 7 6 6 12 16 14 14 15 13 11 9 9 9 7 8 12 13 12 11 11 11 12 15 17 16 18 16 13 15 14 9 7 9 12 15 15 14 14 13 10 10 10 10 10 11 11 11 10 9 8
17 17 18 17 17 17 16 15 16 16 16 17 19 21 22 21 18 15 15 15 13 11 11 11 11 12 13 14 12 10 12 12 10 10 10 11 13 12 10 8 6 9 12 13 13 15 16 15 11 10 10 8 8 9 10 11 11 10 8 10 14 15 15 17 16 15 15 13 10 8 10 15 17 15 12 11 10 8 8 8 7 7 8 7 7 7 8 9
18 17 17 16 16 16 15 16 16 16 17 18 21 22 21 20 17 16 16 14 12 13 12 10 13 16 15 13 11 9 12 13 10 10 12 12 12 11 11 10 7 7 11 15 13 12 15 15 10 8 8 8 9 7 6 9 11 8 6 10 14 12 13 13 10 10 9 10 11 11 12 14 14 13 10 9 10 9 9 8 8 10 9 7 8 9 11 11
18 17 17 16 15 15 16 16 16 17 17 19 23 21 18 16 15 15 14 12 12 14 14 13 15 18 16 14 13 11 11 12 12 12 12 10 10 9 9 8 6 6 9 13 13 12 15 15 9 8 8 6 7 6 5 8 12 10 9 12 11 7 10 12 8 5 6 10 13 11 13 14 13 13 12 9 11 11 10 11 11 12 11 10 12 12 12 12
18 17 16 15 14 15 15 15 17 17 17 20 23 18 14 12 11 10 10 10 11 12 15 18 16 15 17 16 14 13 13 13 12 14 13 11 10 10 8 8 6 6 6 8 11 11 13 15 10 8 10 7 4 5 6 6 8 11 13 12 7 6 9 11 12 11 10 13 14 11 12 14 14 16 14 12 14 13 12 12 12 12 12 12 13 12 12 11
17 17 15 14 15 15 15 16 16 16 18 20 19 13 11 10 8 7 7 8 10 12 16 19 15 13 15 16 15 13 13 15 14 14 14 12 12 9 8 8 7 5 4 5 10 9 10 15 12 7 10 8 4 6 9 7 5 8 11 9 9 12 13 11 13 14 13 13 14 12 11 11 12 15 16 15 15 14 13 12 12 13 13 12 12 12 12 10
17 18 18 15 15 15 15 16 14 15 20 21 17 13 11 9 7 6 5 7 10 13 16 16 13 12 13 14 15 12 12 15 14 13 14 13 12 9 7 8 8 6 4 4 9 8 8 15 15 9 8 8 7 9 12 11 8 7 9 8 8 10 11 11 11 11 12 13 12 12 12 14 14 14 15 16 15 14 14 13 13 13 13 12 12 11 11 10
16 20 20 15 15 16 15 16 16 17 20 17 13 12 10 8 8 5 4 6 9 12 15 14 13 14 13 12 13 12 11 13 13 13 13 12 12 10 6 6 7 7 5 5 7 8 8 13 15 11 8 9 11 10 9 10 10 10 11 11 10 9 8 10 8 7 10 12 11 11 13 16 15 12 14 16 14 14 14 13 13 13 12 12 12 10 10 8
17 22 20 14 15 15 15 17 14 12 14 11 9 10 8 8 8 6 4 5 7 9 10 12 13 14 14 13 13 12 11 12 12 12 13 11 12 12 7 4 5 6 7 8 8 8 9 12 14 13 12 12 10 5 3 5 6 8 10 10 10 10 10 12 11 7 7 10 11 10 12 16 14 10 11 13 13 13 11 11 12 13 12 12 11 9 7 6
19 23 19 15 16 15 16 17 9 5 10 11 9 9 8 8 9 7 6 6 8 9 9 10 11 11 12 13 12 11 12 13 12 12 13 11 10 10 6 2 2 4 6 9 8 6 7 10 13 14 12 9 6 1 1 2 2 4 6 6 8 9 11 14 13 10 8 7 7 7 10 15 13 8 8 10 10 9 7 7 10 12 11 10 9 8 6 5
21 22 18 15 15 15 18 19 10 7 9 8 5 6 7 8 8 8 7 8 9 10 11 11 10 11 11 10 11 11 12 13 12 11 12 10 8 6 3 1 3 4 6 9 8 5 7 10 13 15 11 7 4 2 0 1 2 5 6 4 6 8 9 10 10 10 9 8 8 8 10 15 14 8 7 7 7 7 7 6 9 10 10 9 8 7 6 6
18 17 16 16 16 17 21 22 16 11 8 7 7 8 7 7 8 8 9 9 9 10 12 11 9 10 10 8 10 10 10 13 13 10 9 10 7 3 1 2 3 4 6 8 7 7 9 12 13 15 16 13 11 9 7 5 5 7 7 4 5 6 6 7 7 7 10 9 9 11 13 16 14 9 9 9 8 10 11 9 8 9 9 8 7 7 6 6
17 17 17 16 14 14 17 16 15 13 9 10 11 10 9 9 6 7 8 8 7 8 11 11 8 9 8 7 9 9 8 12 13 10 8 8 6 2 2 2 2 4 4 3 4 6 9 11 12 15 17 17 17 16 14 11 8 7 6 4 5 6 7 9 9 9 11 9 7 10 14 15 14 12 12 12 11 11 12 11 8 7 7 7 7 7 6 5
20 20 20 20 15 11 10 7 10 13 12 13 14 11 11 12 8 5 6 8 6 6 9 10 7 9 10 9 12 12 9 9 10 10 10 9 7 3 2 2 3 3 3 2 3 5 8 9 9 13 15 15 16 14 10 9 10 10 9 6 6 5 6 9 10 10 11 8 7 11 12 13 13 12 12 12 11 10 10 10 9 7 7 7 6 6 5 4
19 20 18 19 18 15 13 10 10 13 13 14 16 13 11 12 10 7 7 8 7 6 8 9 8 11 13 12 14 14 10 9 10 10 9 8 6 3 2 2 3 3 3 3 3 5 10 11 8 9 11 11 12 10 7 7 10 10 10 9 7 5 5 8 10 11 10 9 11 11 9 10 12 12 12 11 10 10 9 9 9 8 7 6 5 5 6 6
16 17 11 12 17 17 16 14 12 12 13 12 12 11 12 12 12 12 10 7 6 7 10 12 10 12 13 13 15 15 12 12 12 10 9 7 6 5 5 4 3 3 3 4 4 5 10 12 7 6 10 10 8 6 5 6 7 8 8 9 8 5 6 8 9 9 9 11 13 11 8 9 11 10 11 11 10 10 9 9 8 7 7 7 7 8 9 8
12 14 8 6 12 12 10 9 9 12 14 13 12 12 13 14 14 12 9 9 10 8 10 15 14 12 11 11 14 16 14 15 15 12 10 9 7 7 9 8 5 2 3 5 4 4 8 11 7 5 9 10 6 3 3 4 6 7 7 8 7 6 6 7 8 8 8 10 11 10 8 8 9 9 10 10 9 8 7 7 8 8 9 8 8 9 9 8
14 16 12 10 11 9 7 8 10 15 15 12 15 14 11 14 15 11 8 11 15 12 9 14 15 10 10 10 13 15 14 14 16 14 11 11 10 9 11 12 8 3 3 6 5 4 7 10 7 5 9 11 6 3 3 4 5 7 7 6 6 6 5 5 6 6 7 8 8 7 7 7 8 9 9 9 9 7 8 9 10 10 9 8 9 9 8 8
12 12 12 16 16 10 10 11 11 16 17 15 17 15 12 14 14 12 10 8 10 12 11 13 13 9 8 10 12 14 11 10 13 12 10 11 11 9 10 10 9 7 6 5 5 5 8 9 6 6 12 13 8 5 6 5 5 7 8 7 6 5 6 5 5 5 7 8 8 7 8 10 11 9 9 10 10 9 10 11 11 10 8 7 8 8 8 9
11 10 10 17 18 11 10 12 11 16 18 15 13 12 12 13 11 12 14 9 5 7 7 8 11 11 10 12 12 11 9 8 7 6 4 5 5 5 5 6 7 8 7 6 5 5 6 9 9 8 13 14 9 6 7 8 11 14 14 11 8 7 6 6 5 6 6 8 9 10 12 13 11 8 9 11 11 10 10 10 9 9 8 7 7 7 8 9
Height
816 815 815 815 815 815 815 814 814 814 814 814 814 814 814 813 813 812 812 811 811 810 809 810 809 809 809 808 809 808 807 802 800 802 810 823 825 820 816 813 810 808 808 808 807 805 804 805 806 803 802 810 822 828 830 836 838 839 851 867 879 885 887 887 891 892 892 899 902 902 903 903 905 906 905 905 906 908 907 907 908 907 907 907 906 906 906 906
817 816 816 816 816 816 816 816 816 816 815 815 815 815 815 814 813 812 812 811 810 810 810 810 809 810 809 810 810 808 809 803 802 810 819 825 821 817 815 811 809 808 808 807 807 805 806 812 809 805 810 823 833 833 834 842 845 852 864 873 884 890 891 891 891 892 894 898 903 904 905 904 906 907 905 906 909 909 906 907 908 907 907 907 907 906 906 906
818 818 817 817 817 817 817 817 817 817 816 816 816 816 816 815 814 812 811 811 810 810 810 810 811 811 810 811 809 809 809 804 808 819 823 821 819 817 814 812 810 809 808 808 808 807 809 814 810 810 820 832 840 839 841 848 853 863 869 877 893 894 893 896 894 894 896 899 902 904 905 905 907 908 905 907 909 909 908 909 908 907 908 907 907 906 906 906
819 819 818 818 818 818 818 819 818 818 818 818 817 817 817 816 816 814 812 810 809 810 810 811 811 811 811 810 809 810 808 807 819 829 825 822 820 817 815 815 813 811 811 809 810 810 811 813 813 817 826 839 846 843 851 858 858 870 878 884 896 893 894 899 897 898 900 901 902 904 905 905 907 908 908 908 907 908 910 910 909 908 908 907 907 906 906 906
820 819 819 819 819 819 820 820 820 820 819 819 819 818 818 817 817 816 814 811 810 810 811 812 812 813 811 809 808 808 808 819 832 831 826 824 820 819 817 816 815 814 813 811 813 812 812 815 816 823 835 847 849 847 862 868 862 878 892 893 895 893 896 903 902 900 902 902 903 904 904 906 908 908 910 909 906 908 910 909 909 909 908 908 907 907 906 906
819 819 820 820 820 820 820 821 821 821 820 820 820 819 819 818 817 817 816 814 813 813 813 813 814 814 813 810 807 805 813 835 841 832 829 825 821 820 818 818 818 816 815 814 814 813 817 820 821 834 848 858 860 860 872 872 865 878 895 898 897 896 898 903 903 903 903 902 902 904 906 908 908 908 912 910 907 909 909 909 910 908 909 908 908 907 907 906
819 819 820 820 821 821 821 821 821 821 821 820 820 820 819 818 817 817 817 816 816 816 815 815 815 815 815 812 808 809 824 842 843 835 831 826 822 822 819 819 818 818 817 816 816 819 824 827 832 845 853 859 867 872 874 874 873 881 894 901 901 901 903 905 905 906 905 903 905 907 907 909 907 907 911 910 909 910 909 909 909 908 908 908 908 908 907 907
819 819 820 820 821 821 821 821 822 821 821 821 821 820 820 818 817 817 817 817 817 817 817 816 816 815 815 814 811 818 835 844 842 837 833 827 824 823 821 821 819 819 818 820 822 823 827 832 839 847 854 862 868 873 872 873 883 889 896 902 903 905 908 908 907 907 907 907 909 907 907 910 911 911 911 909 909 910 909 908 908 907 907 907 908 907 907 907
820 820 820 821 821 821 821 821 821 821 821 821 821 821 821 819 818 818 817 818 817 817 818 816 817 816 815 816 813 826 845 848 844 839 834 830 826 824 823 823 822 820 821 824 825 824 828 837 842 845 855 866 869 874 871 870 886 897 899 903 905 908 910 909 908 908 908 909 909 907 910 912 913 913 910 909 910 910 910 908 908 908 907 908 907 907 907 906
821 821 821 822 822 822 822 822 822 822 822 821 822 822 821 821 820 819 819 818 817 817 817 817 818 817 817 815 816 837 853 848 845 842 837 834 829 826 825 825 824 822 824 828 828 828 831 836 843 845 852 865 873 879 875 874 890 901 902 905 907 908 909 909 908 909 909 910 910 909 911 912 913 912 908 909 911 911 910 908 909 908 907 908 908 907 907 907
823 823 823 823 823 823 823 823 823 823 823 822 823 822 822 823 822 822 821 820 820 818 819 820 819 819 819 818 826 847 855 848 847 844 839 837 831 830 831 830 829 825 827 831 834 836 836 838 842 845 854 867 876 882 885 889 896 901 900 902 908 907 908 910 908 910 911 910 912 911 912 913 913 911 908 909 912 913 910 908 909 909 908 909 908 908 907 907
825 825 825 825 825 825 824 824 824 824 825 824 824 824 824 824 824 824 823 823 822 821 822 822 823 821 818 824 839 852 853 850 850 846 843 839 836 837 836 835 833 832 831 833 840 841 840 842 839 844 860 870 876 884 892 897 897 898 899 901 908 907 907 911 910 912 912 911 915 914 910 909 909 908 909 911 913 913 911 909 909 909 909 909 909 908 908 907
827 827 827 827 827 827 826 826 825 825 826 825 826 825 825 825 825 826 825 825 824 824 824 823 825 821 818 836 852 853 852 852 850 849 846 843 843 843 840 839 837 838 836 835 842 843 842 844 840 850 864 869 878 884 889 898 896 897 902 903 908 907 908 913 912 913 911 912 917 914 905 901 906 909 909 913 914 911 909 909 909 909 910 909 909 909 908 907
828 828 828 828 829 828 828 827 826 827 827 827 827 827 827 827 827 827 827 827 826 826 826 825 826 821 825 847 855 852 854 853 851 850 848 848 848 846 845 844 842 843 842 840 845 847 849 847 842 855 868 871 880 885 889 898 899 902 905 908 912 908 908 913 916 914 909 913 917 912 906 900 904 909 910 914 915 911 910 909 909 908 909 909 909 908 907 906
829 829 829 829 829 829 829 828 827 828 827 828 829 828 829 828 828 829 828 829 829 829 828 826 826 825 835 851 854 853 855 852 853 853 852 852 850 849 850 847 847 847 846 846 848 851 853 848 848 865 876 877 880 884 891 897 902 909 902 904 917 912 909 914 918 918 911 913 917 912 907 903 905 908 911 916 914 912 911 909 909 908 908 908 908 908 907 905
830 830 829 830 830 830 831 831 830 829 828 829 829 830 830 829 830 830 830 831 829 829 828 829 830 829 840 854 854 854 855 854 856 856 855 854 852 853 852 850 851 850 849 851 851 853 852 851 862 878 883 885 888 886 889 894 899 909 904 904 916 912 911 913 914 920 917 913 914 913 910 905 906 908 911 916 914 912 911 909 909 908 909 910 908 909 908 906
831 831 830 830 830 831 832 833 833 831 830 830 830 832 831 831 831 831 831 830 831 832 829 833 834 831 844 856 855 857 859 859 859 858 857 856 855 854 853 852 852 850 851 851 851 854 855 861 875 885 890 898 903 890 881 889 895 903 910 913 921 920 915 913 911 918 919 912 912 915 914 906 905 909 909 913 915 912 911 909 909 910 910 910 910 909 908 908
832 831 831 831 831 831 832 833 834 833 832 831 832 833 832 833 832 831 833 830 831 831 830 835 833 835 853 861 859 862 862 861 860 859 857 857 856 855 854 854 853 852 853 854 857 861 865 874 881 887 895 904 911 898 879 887 894 895 903 907 916 922 919 916 913 916 917 912 911 912 911 906 905 908 907 911 916 912 910 911 911 911 910 909 910 909 908 908
832 832 832 831 831 831 831 832 833 833 833 832 833 833 833 833 831 833 835 833 837 841 845 850 845 848 863 865 864 865 862 862 861 860 859 858 857 856 856 856 856 856 858 862 867 873 876 881 888 896 906 912 920 917 899 898 899 898 905 907 910 914 915 918 915 919 923 914 910 911 911 910 906 905 905 908 915 912 909 911 910 909 909 908 908 908 907 907
832 832 832 832 831 830 831 831 832 833 832 833 833 833 834 836 839 846 847 845 853 860 862 863 860 860 865 866 866 864 863 863 862 862 860 859 858 857 858 859 860 863 872 877 875 881 883 889 907 918 924 926 927 929 922 917 912 908 909 911 916 915 912 917 916 919 925 914 910 916 915 912 906 903 904 907 912 910 906 907 907 907 907 907 907 906 906 905
833 832 832 832 831 830 830 830 831 831 832 833 833 834 836 838 843 852 855 857 865 866 864 865 865 864 866 868 867 865 864 862 860 862 861 860 859 858 863 865 862 869 886 892 886 885 885 895 917 927 930 934 931 931 926 917 913 910 908 909 915 917 913 916 917 919 925 915 909 918 914 904 902 900 902 908 907 903 903 904 903 904 906 906 907 905 905 904
833 832 832 831 831 830 830 830 830 831 832 833 834 836 838 838 840 843 847 858 867 866 865 866 865 866 868 867 867 867 865 863 862 863 863 862 859 861 870 874 873 882 893 891 885 887 895 907 922 929 933 934 931 931 921 912 913 911 911 909 909 918 918 915 915 919 924 914 905 914 911 900 899 900 900 904 902 899 902 905 903 904 904 904 904 904 904 903
833 833 832 832 832 831 830 830 830 832 833 833 835 836 838 839 841 841 841 851 865 868 867 866 866 869 868 867 869 867 866 872 873 870 868 865 866 871 876 882 886 892 897 890 883 885 897 914 927 932 934 927 922 924 915 908 914 918 915 908 909 921 919 908 911 918 923 921 913 914 910 900 899 899 897 902 905 903 905 906 906 907 905 902 903 904 904 902
834 833 833 833 833 832 832 832 832 833 834 835 836 837 840 840 841 842 843 851 862 867 869 869 869 870 871 871 872 869 871 879 881 878 874 870 874 878 882 888 890 897 908 905 897 899 909 924 932 932 931 925 914 915 918 909 911 923 923 915 914 921 921 916 917 920 920 922 922 913 899 892 896 894 890 900 908 903 903 904 901 903 905 904 903 902 903 902
834 833 834 834 834 834 834 834 835 836 837 838 838 839 841 841 842 842 843 852 862 866 868 869 869 871 873 873 872 874 875 879 883 882 879 877 879 880 886 892 891 899 913 909 903 909 920 930 932 926 923 921 912 916 931 924 910 915 926 928 927 925 925 922 918 917 910 908 920 918 895 885 893 893 890 898 903 897 900 901 894 896 900 901 900 898 899 900
834 834 834 834 834 835 835 836 838 838 838 839 840 841 841 841 843 842 843 855 867 871 870 868 871 873 874 874 875 875 874 879 885 884 881 881 881 880 885 893 896 902 912 910 906 913 923 930 930 924 918 916 915 922 937 935 913 909 926 936 936 931 926 919 915 912 905 903 920 925 904 894 893 887 894 905 902 895 896 896 892 894 895 895 896 895 896 897
834 834 834 834 835 835 835 836 837 838 838 840 841 841 842 842 842 841 845 860 874 877 874 871 873 876 876 878 878 875 875 882 884 884 884 882 882 881 882 893 899 903 916 911 902 914 923 922 924 922 917 913 914 922 935 937 917 911 932 939 934 930 923 922 917 910 913 915 920 924 916 910 901 889 901 911 899 892 893 891 890 891 892 893 894 894 894 894
834 834 833 834 834 834 835 835 837 838 837 840 841 841 842 842 842 842 848 868 881 880 879 877 875 877 879 879 880 879 883 887 884 883 886 883 883 883 886 901 905 907 920 906 896 919 928 921 922 921 916 915 920 929 937 937 923 922 939 940 935 933 927 928 921 911 924 919 907 919 922 911 899 892 903 908 895 889 889 887 887 888 890 892 892 893 893 893
835 834 834 834 834 834 835 835 836 838 838 840 840 841 842 841 842 844 852 874 884 880 883 881 876 880 884 881 883 887 889 890 889 889 888 886 886 886 892 908 909 909 917 908 904 923 929 927 930 926 920 922 929 938 940 935 928 932 942 939 937 938 934 933 923 913 923 914 898 916 923 907 893 886 892 897 889 885 885 886 888 888 891 892 892 892 891 892
835 834 834 834 834 834 835 836 837 838 839 840 840 842 842 841 845 852 864 879 884 884 886 882 882 890 889 882 884 892 893 894 899 895 890 892 891 892 901 907 906 907 912 914 918 927 932 933 934 931 929 931 935 940 942 939 936 938 940 934 930 931 931 931 928 921 913 901 903 922 926 913 897 884 883 886 884 883 883 886 888 888 890 890 890 891 890 891
836 835 835 834 835 835 835 837 838 838 840 840 841 842 841 845 853 861 874 885 886 887 888 889 895 898 894 890 892 898 897 897 904 898 893 899 899 898 904 903 902 902 904 911 919 926 930 928 931 935 935 937 935 935 941 943 942 939 932 925 917 916 920 917 917 918 901 892 911 929 931 922 904 884 879 881 885 887 885 884 885 886 887 888 888 888 889 890
837 836 835 835 835 835 835 837 839 840 840 841 841 841 843 852 862 873 884 887 887 891 894 897 902 901 899 899 901 906 904 901 908 909 908 913 913 916 918 916 913 901 895 908 916 918 924 926 932 935 935 938 932 925 931 936 937 932 925 921 909 901 905 898 900 910 900 898 923 937 930 920 901 882 877 880 883 887 887 886 886 886 885 886 887 887 888 889
838 838 836 835 836 836 836 838 839 840 841 841 841 842 846 854 871 891 895 888 890 901 903 903 905 906 901 896 903 912 910 907 910 913 918 918 916 925 930 933 933 913 901 912 913 908 914 923 930 930 929 936 932 921 917 920 924 922 921 919 906 902 904 897 904 915 905 904 928 944 931 907 888 878 878 881 883 889 891 890 890 890 888 886 887 888 888 888
840 839 838 838 837 837 838 839 840 841 842 841 842 845 851 862 882 898 896 894 902 907 906 907 905 903 901 901 910 915 907 909 915 913 913 913 909 916 922 927 933 925 915 915 915 911 905 908 923 928 927 932 934 930 924 923 924 927 936 927 911 912 909 901 907 907 905 914 926 936 921 891 878 878 883 888 890 895 896 895 897 894 892 892 890 890 887 885
842 841 840 839 839 840 841 841 842 842 841 842 845 850 858 872 889 893 890 897 905 902 904 910 902 894 900 907 914 916 908 906 915 915 911 912 914 918 921 924 932 932 919 907 915 923 911 909 927 935 935 935 932 936 940 931 922 933 945 927 914 923 920 924 941 940 941 937 921 918 908 889 885 884 889 895 892 893 894 894 895 890 890 894 889 886 884 882
843 842 841 841 842 842 842 842 843 842 843 843 845 858 874 885 891 892 894 900 900 897 898 901 897 891 896 905 909 914 912 908 912 911 912 922 926 927 929 931 937 937 926 912 915 920 909 911 932 936 934 940 936 938 944 931 919 929 932 918 928 944 931 928 950 967 966 936 910 913 901 886 887 881 885 893 886 887 891 887 888 886 886 889 883 881 883 882
842 842 843 844 844 843 843 844 843 842 843 842 849 872 893 899 901 903 906 905 902 901 894 890 898 900 897 901 905 909 908 908 911 906 911 923 924 927 932 933 937 939 937 929 921 923 915 909 928 935 927 937 945 941 941 941 934 925 917 921 939 946 937 928 926 934 939 917 903 915 907 892 890 879 878 885 881 882 886 884 886 885 883 883 881 881 882 883
842 843 843 845 844 844 844 843 843 844 843 849 868 891 901 903 908 912 912 909 904 900 891 887 900 909 903 899 903 911 909 903 906 908 911 917 919 927 934 932 935 940 944 938 925 930 928 907 920 939 930 934 947 938 929 937 943 932 924 933 934 922 921 927 922 917 923 919 909 912 917 910 897 882 875 876 876 878 882 884 884 882 881 881 881 881 881 883
842 842 844 847 845 845 844 843 846 844 841 855 878 892 900 905 911 915 915 912 905 897 891 892 903 910 910 905 903 912 913 904 907 912 911 913 917 928 936 933 934 938 943 942 929 933 935 911 909 932 937 934 936 930 920 923 935 937 933 937 937 931 928 929 935 933 925 924 921 913 907 893 884 884 877 872 876 878 879 882 881 880 881 880 881 881 881 883
842 842 845 848 845 845 846 843 845 846 851 873 889 894 903 908 910 916 917 913 908 900 895 898 904 904 907 913 910 912 916 912 913 914 914 919 920 924 937 938 935 936 940 941 935 934 935 918 908 924 936 930 925 930 931 929 931 929 925 928 932 939 943 937 945 954 937 925 933 931 907 879 877 887 878 871 877 878 878 881 879 880 880 880 882 883 883 884
842 842 845 847 845 847 845 844 860 874 879 892 900 901 906 907 907 915 917 915 912 908 905 903 904 903 903 909 910 912 915 914 916 916 915 921 919 919 935 944 941 940 935 932 933 933 929 921 914 917 920 917 928 951 957 950 948 940 929 930 930 933 935 925 932 957 957 940 937 940 918 883 878 890 885 879 881 882 886 886 880 880 880 880 882 883 885 885
842 845 848 847 845 845 843 856 887 900 891 894 901 904 907 907 907 912 914 914 911 909 910 908 907 909 908 908 911 915 914 911 915 916 914 922 925 925 938 948 947 945 936 929 934 940 937 929 918 913 919 931 945 962 964 958 960 957 948 947 942 936 929 917 917 936 952 956 956 958 936 890 879 895 894 889 889 890 895 894 886 881 881 882 883 883 885 884
845 847 848 847 846 845 846 862 890 901 898 905 911 910 910 909 908 911 912 911 909 907 906 907 910 910 911 914 915 915 914 911 914 918 918 925 933 937 946 950 946 945 939 930 934 941 938 928 917 909 921 942 953 961 966 965 962 950 948 954 948 939 935 932 933 936 940 950 951 949 929 885 874 896 897 894 898 894 894 896 889 883 882 884 885 883 883 882
851 850 850 848 845 844 845 856 875 893 904 909 908 908 911 912 911 909 908 908 909 908 903 907 913 910 914 921 917 917 920 912 912 922 926 926 934 944 949 949 946 943 938 933 935 936 928 924 920 908 906 915 923 932 939 947 952 941 942 956 952 947 948 944 949 948 935 938 939 928 908 880 875 892 891 889 893 887 885 890 888 885 883 883 884 882 882 882
851 851 852 850 847 847 855 864 870 884 900 900 898 903 905 908 914 914 911 912 916 913 905 908 916 914 918 923 919 923 927 914 910 924 930 930 938 947 949 947 947 944 942 944 944 938 929 927 924 911 904 902 899 905 912 923 939 940 945 956 951 948 944 933 938 938 924 939 950 923 895 878 875 884 883 883 887 883 881 883 885 887 885 884 884 881 881 882
851 851 852 851 852 857 871 883 878 878 889 889 889 901 901 900 911 918 915 912 916 918 911 911 917 915 915 917 912 914 924 924 920 921 924 928 936 946 949 947 947 945 945 947 945 941 937 935 932 920 912 909 903 911 926 930 930 928 934 945 947 950 947 935 934 928 922 939 940 912 898 890 879 880 882 881 884 884 884 882 881 884 884 884 884 882 881 882
853 857 861 857 856 862 871 882 881 878 883 881 881 895 900 898 907 913 913 913 915 917 913 912 915 908 904 908 905 907 919 925 922 921 925 931 939 946 949 948 947 946 945 945 945 942 929 925 937 936 922 920 920 925 938 939 928 923 925 931 940 950 950 938 926 919 924 929 911 901 912 906 884 881 882 881 882 883 883 882 879 880 881 882 882 881 880 879
856 864 876 870 863 867 869 874 882 882 882 885 890 897 898 897 900 900 905 914 917 915 909 906 909 907 903 905 900 901 913 915 913 920 927 933 938 940 941 944 947 946 945 944 944 942 927 920 940 945 926 923 933 939 944 943 937 935 930 926 934 945 945 934 924 922 925 913 893 897 914 907 890 887 884 881 882 881 880 881 881 880 880 880 880 878 876 876
864 867 880 878 873 881 885 886 889 883 880 886 891 895 894 891 892 897 906 910 908 913 909 896 898 905 907 909 902 899 905 904 903 913 921 926 934 933 927 930 940 948 946 941 943 945 932 923 941 950 929 921 938 951 952 948 940 937 934 930 931 937 938 932 926 926 925 913 901 905 914 907 894 888 885 880 880 883 883 882 880 878 877 878 877 876 875 876
861 860 871 875 878 889 893 891 887 878 881 886 883 889 896 889 888 899 907 902 894 903 910 897 895 908 912 911 905 899 903 903 899 906 914 916 922 926 919 914 928 945 945 940 944 946 933 926 943 951 927 916 937 952 950 949 944 933 930 933 934 935 939 939 935 933 930 922 915 917 920 910 890 882 883 880 879 882 880 876 874 874 876 878 875 875 875 874
858 859 863 863 872 887 888 888 887 876 875 880 878 885 893 888 888 896 902 908 903 900 904 899 899 912 917 912 906 903 909 911 906 909 915 912 912 918 918 916 922 933 938 942 943 940 933 932 943 943 915 905 930 942 935 940 943 930 920 924 931 932 931 930 930 928 922 915 914 917 911 893 879 879 881 876 875 877 874 872 873 872 876 877 874 874 873 871
859 861 862 858 867 886 888 885 887 877 872 881 885 889 891 888 894 894 890 905 915 910 910 909 903 906 909 907 907 908 913 917 917 920 924 923 923 926 926 926 927 926 931 939 941 943 941 928 929 933 911 900 924 939 933 925 910 892 888 895 908 918 920 921 922 919 915 909 904 898 884 872 875 883 880 873 872 873 872 873 874 872 873 874 873 873 871 870
Wind_Speed
15 14 13 13 13 13 14 14 15 14 14 13 12 13 13 13 9 1 3 6 8 6 6 4 5 4 6 9 12 15 26 36 40 46 35 26 33 24 15 13 10 4 5 6 10 16 19 19 17 21 22 15 7 4 7 8 5 5 4 5 4 3 3 4 5 4 4 5 3 2 3 6 4 1 0 2 7 5 4 4 3 3 3 0 0 0 1 2
13 13 12 11 11 11 12 13 13 13 13 11 11 11 12 15 12 2 6 7 9 8 7 6 4 1 3 6 8 10 18 36 43 38 30 33 32 19 12 13 12 5 4 9 12 17 15 8 15 23 13 5 5 6 6 5 6 5 4 5 3 2 2 2 5 4 3 6 5 4 4 4 2 1 1 3 5 6 6 5 5 5 5 3 1 1 2 3
10 11 11 10 9 9 9 11 12 13 13 11 10 10 11 15 18 11 3 9 10 10 9 7 6 5 6 7 8 9 12 30 32 24 33 39 29 18 12 12 13 9 7 14 18 23 21 11 21 23 8 6 6 4 7 5 4 4 4 5 1 3 3 4 4 5 4 8 8 4 3 4 2 2 2 4 2 6 4 1 4 4 4 5 4 2 3 5
8 10 10 10 9 9 8 10 12 14 14 11 10 10 10 9 13 20 13 2 7 8 9 8 6 7 8 9 10 9 7 16 14 20 36 37 26 17 10 10 14 15 14 23 27 28 30 24 24 16 8 8 5 5 9 6 3 4 4 5 2 3 5 6 4 8 5 6 7 4 4 4 2 2 3 4 4 5 2 3 1 1 4 5 6 5 5 7
8 9 9 10 10 9 9 9 10 11 13 11 10 10 11 7 5 14 24 22 12 7 6 5 6 6 8 9 10 8 3 7 9 28 38 32 22 15 8 11 15 18 20 26 25 25 28 21 15 10 7 6 5 7 7 7 4 5 5 5 3 3 6 3 3 7 5 6 6 5 5 2 1 3 2 4 5 1 3 3 5 5 5 4 6 7 7 8
8 7 8 9 10 10 10 8 7 9 11 10 10 11 11 8 5 8 17 26 25 21 20 20 21 22 24 21 17 13 9 4 14 31 34 27 19 13 8 8 12 13 16 21 21 23 21 14 12 9 5 6 8 8 4 7 5 6 4 5 6 6 6 2 3 5 4 7 5 3 3 1 3 3 0 4 4 3 4 3 5 6 6 6 7 7 8 9
6 6 6 8 9 10 9 9 8 8 10 9 9 11 12 8 5 6 6 10 14 15 19 21 23 26 27 33 40 32 15 3 19 30 28 24 15 12 11 8 9 10 13 22 25 20 14 15 16 8 5 9 9 9 10 12 12 9 6 4 6 7 6 3 3 5 6 7 3 2 4 3 4 3 1 2 2 5 5 6 6 7 8 7 7 6 7 8
7 6 7 8 8 8 8 9 10 10 10 9 9 10 15 14 7 4 3 3 4 6 8 10 11 10 12 19 26 21 9 8 24 28 25 23 15 9 12 14 15 19 19 21 19 14 11 14 12 5 8 9 5 7 10 13 13 8 6 3 4 5 5 5 6 7 7 6 3 5 7 3 0 1 1 2 5 6 8 9 7 6 6 5 4 6 7 6
10 11 10 10 9 8 9 10 11 11 10 10 11 10 14 18 15 10 8 7 5 3 1 1 3 5 8 8 11 11 8 15 23 24 25 25 21 10 9 13 14 19 20 16 11 10 5 5 5 5 10 9 6 4 3 7 6 3 5 5 5 5 4 5 7 6 5 4 4 7 5 3 2 1 0 3 6 6 8 8 7 6 6 5 5 6 5 3
13 14 14 12 11 10 10 11 11 10 11 12 11 11 13 16 20 19 16 14 12 10 7 6 3 6 15 12 12 11 8 16 21 24 24 25 28 24 20 20 19 23 25 23 20 15 11 14 14 13 12 7 5 5 6 8 6 4 8 9 8 7 4 5 6 6 5 3 4 6 1 5 4 2 1 4 4 5 8 7 7 7 5 5 5 6 3 2
13 14 15 14 14 13 12 11 10 9 10 12 12 12 13 14 18 21 23 25 27 29 28 27 23 25 32 23 14 9 8 16 20 23 25 25 30 30 27 27 30 35 34 28 23 20 23 26 21 13 7 4 7 11 10 9 9 7 9 10 9 7 6 6 5 6 4 2 4 6 1 6 5 2 4 6 3 5 6 7 7 6 5 5 5 5 4 4
14 16 17 18 18 16 13 10 7 8 9 12 13 13 13 13 14 16 18 18 19 21 22 25 25 31 39 26 10 6 10 17 19 22 27 29 32 31 27 25 27 29 31 24 16 13 16 16 16 12 4 5 7 10 6 4 7 7 6 9 7 6 7 6 3 3 3 1 1 3 1 6 3 1 6 5 4 5 6 6 6 5 5 5 4 4 4 5
16 19 19 20 21 19 15 10 6 6 7 9 11 13 13 13 12 12 11 9 8 9 10 11 12 24 30 13 5 9 12 18 19 21 27 30 32 34 34 33 31 30 33 31 23 21 20 23 29 18 5 6 5 6 8 3 5 5 5 6 4 5 5 5 3 3 2 1 1 2 2 5 4 6 7 5 5 6 7 6 6 5 5 5 4 4 5 7
18 18 18 19 20 20 18 13 9 6 6 8 11 13 14 13 12 11 13 14 15 16 19 18 17 27 24 4 4 12 12 15 19 21 23 25 28 32 35 37 38 37 39 38 34 33 30 36 39 18 5 7 7 8 8 5 5 4 3 3 3 3 2 5 4 4 2 1 3 5 0 5 6 8 6 5 4 5 6 7 5 5 4 5 5 4 5 8
15 14 15 16 17 19 19 16 14 9 7 7 9 13 15 15 14 12 11 12 13 14 17 18 15 18 13 3 5 10 12 16 18 20 17 16 19 21 24 29 33 33 36 35 34 32 31 36 31 11 4 7 6 8 5 4 4 3 3 3 4 3 1 6 4 3 2 1 5 6 1 5 5 7 6 5 5 5 4 7 6 5 5 5 5 5 5 8
10 10 9 9 11 14 15 16 18 18 15 11 10 10 10 13 15 16 15 14 13 9 10 13 12 14 9 1 4 7 11 15 16 16 14 13 12 9 11 17 21 23 25 25 25 26 27 28 16 4 6 6 6 6 4 4 4 4 4 2 3 3 2 4 2 3 2 1 4 4 1 4 3 5 6 5 5 5 4 7 7 6 6 5 5 5 5 7
5 4 3 3 6 9 9 10 15 21 24 23 19 13 10 8 5 7 10 12 13 10 11 12 8 13 8 2 3 6 7 11 14 14 12 12 12 7 6 8 9 11 14 17 21 18 17 14 4 2 6 4 3 4 5 5 3 4 4 3 1 1 1 3 2 4 6 3 3 4 0 5 5 6 8 5 4 5 4 7 7 6 6 6 5 5 6 6
2 1 3 5 8 10 8 4 8 15 22 26 27 24 23 20 14 12 8 4 3 5 9 13 9 8 6 4 3 5 8 10 13 15 11 9 12 12 10 8 6 6 6 10 16 13 8 6 4 3 5 5 5 5 5 3 2 3 2 3 2 1 1 2 2 3 7 5 4 5 2 6 8 8 7 5 4 4 5 6 6 6 6 6 5 5 6 6
2 4 5 8 9 10 7 2 7 9 12 16 19 15 14 18 24 28 29 20 8 4 3 8 7 6 2 3 4 7 7 7 10 16 16 9 7 9 13 13 8 7 6 4 8 7 4 5 6 4 5 6 5 4 3 3 5 8 5 4 4 1 0 3 4 3 4 3 4 4 2 7 9 8 7 6 4 3 6 5 5 6 5 6 5 5 6 5
3 5 5 7 7 6 3 4 9 11 10 8 5 2 2 5 12 13 20 21 10 5 6 2 4 6 3 3 6 8 4 4 9 18 23 15 6 5 10 11 8 9 7 2 4 5 3 7 7 3 4 7 6 5 1 2 6 8 6 5 4 2 1 3 3 4 1 1 3 2 3 7 8 9 8 6 5 4 6 6 6 6 5 6 5 7 7 6
3 3 4 5 3 2 1 5 10 12 11 8 6 1 1 2 6 2 2 10 7 6 9 4 6 9 4 3 8 9 1 4 13 23 28 16 5 5 8 8 8 8 5 1 2 4 5 8 5 5 5 6 5 3 1 4 7 7 6 5 4 2 2 3 3 5 3 0 3 2 4 8 8 9 8 5 4 5 6 5 6 7 6 6 6 8 8 7
3 2 3 4 4 4 4 6 8 10 9 6 6 6 5 8 14 11 6 7 5 8 7 5 7 7 3 5 12 10 3 7 13 20 27 18 7 5 4 7 9 3 5 4 2 4 8 6 5 6 3 2 3 2 4 7 7 6 4 4 2 1 3 5 3 4 4 0 3 4 5 9 10 8 8 6 5 6 6 6 6 5 6 7 6 7 7 7
4 4 3 4 7 8 10 12 12 12 11 12 15 15 14 17 18 12 8 7 2 5 5 5 6 5 5 7 14 12 8 7 5 13 25 17 6 4 3 7 9 4 6 7 5 5 5 3 5 3 1 2 4 5 6 7 6 4 4 3 0 1 1 2 2 5 4 1 1 4 4 7 7 5 7 5 4 5 4 5 6 5 6 8 7 6 5 7
4 4 3 5 9 11 13 14 16 17 19 21 21 18 17 16 13 9 6 5 3 2 2 2 4 4 4 5 13 10 6 4 1 9 21 12 3 2 5 5 7 7 6 8 11 11 5 2 2 3 3 3 5 8 8 6 4 3 2 3 0 1 1 3 4 4 4 2 2 4 5 4 4 4 6 4 3 5 4 4 6 4 5 6 6 6 6 7
4 3 3 6 9 11 12 13 15 20 20 18 17 16 15 12 8 4 4 4 4 2 1 1 2 5 4 6 13 5 4 4 2 6 14 10 3 2 4 2 5 4 2 4 12 10 4 1 1 4 5 5 7 7 6 3 2 3 1 2 2 2 1 3 5 4 4 3 3 5 5 4 5 4 6 4 5 6 5 5 7 6 5 4 5 6 5 5
4 3 3 7 9 11 10 8 11 16 13 10 13 13 10 7 5 2 3 6 4 3 4 2 1 6 5 8 11 2 4 5 1 6 13 10 4 3 4 3 3 3 4 2 7 4 2 3 3 5 5 8 7 4 2 1 4 2 1 2 4 3 1 2 3 3 1 3 3 4 3 3 6 5 6 4 5 7 6 5 7 6 5 4 4 5 5 5
4 3 3 6 10 10 5 5 11 10 4 6 11 9 6 5 3 1 3 6 4 2 4 4 2 6 5 7 8 2 4 4 1 8 13 11 6 3 6 4 3 3 1 2 4 2 2 4 6 6 6 7 6 3 2 1 4 0 1 3 3 2 1 0 3 2 1 2 3 4 4 1 4 5 5 4 4 7 7 7 8 6 5 5 5 5 5 5
5 3 4 4 9 9 4 8 13 6 4 9 9 6 4 3 1 1 5 5 2 1 2 3 2 4 3 6 9 6 2 3 2 5 11 13 9 4 7 3 3 3 2 4 4 0 2 4 5 5 6 5 2 1 2 2 3 2 2 3 1 1 2 2 3 2 1 2 3 4 3 1 5 6 5 3 3 6 7 7 7 6 6 5 5 6 6 6
7 3 4 4 7 7 6 11 10 6 10 12 8 5 3 1 1 3 6 3 1 1 0 1 2 4 5 7 9 6 3 4 3 5 10 11 11 8 7 2 6 7 4 5 6 2 1 1 1 4 4 2 2 3 3 3 1 1 2 1 1 3 2 3 3 2 2 3 3 4 2 1 4 6 4 2 2 5 7 6 6 6 6 6 6 7 6 6
10 5 5 5 7 9 9 9 7 11 14 10 6 3 1 1 4 5 3 1 1 1 1 2 2 4 6 7 6 7 7 4 3 6 7 5 9 10 6 2 5 8 6 8 6 1 1 1 1 3 3 2 3 1 1 2 1 1 2 1 2 3 3 3 2 2 4 3 5 4 1 2 2 5 4 2 3 5 4 3 5 6 6 6 7 6 6 6
13 9 5 5 6 8 7 6 9 14 11 7 4 1 2 2 5 6 2 1 0 2 3 4 3 4 7 6 4 6 5 5 6 6 6 5 7 8 5 2 3 5 5 6 5 2 3 3 1 1 1 2 3 1 1 1 1 2 2 2 2 4 3 3 4 4 3 3 5 4 2 2 1 5 5 4 5 5 5 4 5 6 6 6 6 6 6 5
15 12 7 5 6 6 6 7 11 12 8 5 3 3 4 2 3 3 1 3 1 1 2 1 2 4 5 4 5 5 4 4 6 5 4 3 5 5 4 2 1 3 3 2 3 3 3 2 2 2 1 2 2 1 3 4 3 4 3 4 3 4 4 2 3 2 2 4 2 1 1 1 5 7 6 6 7 7 6 6 6 6 6 5 6 6 5 5
15 12 10 10 8 8 11 11 11 10 7 4 2 5 7 5 1 1 2 2 1 2 1 0 2 2 3 4 5 5 3 3 4 4 2 2 4 3 3 1 2 2 1 1 1 3 2 2 3 3 2 1 3 3 1 2 2 4 2 3 3 2 4 3 4 2 3 3 2 2 2 2 4 5 6 7 6 6 6 6 6 6 6 7 7 6 6 6
16 13 12 14 12 12 13 11 9 8 5 2 4 5 6 4 1 1 1 2 1 2 1 1 3 3 4 4 2 3 3 2 3 3 3 3 4 3 3 3 3 3 2 2 1 2 1 2 2 2 2 2 2 1 2 2 2 1 3 4 2 3 2 3 3 1 4 5 4 3 1 3 2 2 4 6 5 5 4 5 5 6 7 6 6 7 7 7
15 15 15 15 14 12 11 9 8 6 2 3 6 6 5 2 2 2 2 3 2 1 1 0 3 5 5 4 2 1 1 1 2 4 5 4 3 2 3 3 4 3 2 1 0 1 2 2 2 1 2 2 2 1 1 3 2 1 2 3 2 2 3 1 2 4 1 3 4 2 2 5 3 3 3 3 4 4 4 5 5 6 6 4 6 7 6 6
9 13 15 15 12 9 7 6 5 2 2 5 7 5 2 3 2 3 2 1 2 3 2 1 4 5 3 4 4 3 1 1 3 4 4 3 1 0 1 2 2 2 2 1 1 1 2 2 2 2 2 2 1 2 1 1 0 1 2 2 1 3 6 4 0 0 4 2 4 2 3 5 3 1 3 5 4 5 5 5 5 6 6 5 6 6 5 6
4 8 11 14 12 6 4 3 2 2 4 7 7 3 2 2 1 3 2 0 2 3 5 2 2 2 0 1 3 4 2 1 2 3 2 1 1 1 0 1 1 1 1 2 1 2 2 1 2 1 0 1 1 0 1 1 1 2 2 2 2 3 5 4 1 4 5 1 4 3 3 6 3 1 4 5 4 6 6 5 6 7 6 6 6 6 6 6
3 5 8 13 13 7 3 1 1 3 6 8 5 2 1 0 1 2 1 0 0 3 5 3 1 1 2 1 1 4 3 2 2 4 1 0 1 2 1 1 0 1 1 1 1 0 2 0 3 1 1 2 3 2 2 3 1 2 2 2 2 2 1 2 2 1 3 2 5 5 4 4 2 3 2 2 2 5 6 5 6 6 6 6 6 7 7 6
3 2 4 11 13 8 4 1 2 5 7 6 3 2 1 1 1 1 1 1 0 2 3 2 2 2 1 2 2 2 2 1 1 2 1 0 1 1 1 1 1 1 1 1 2 0 1 1 2 2 1 1 2 2 2 2 2 2 3 3 2 3 2 1 2 2 1 2 4 5 5 3 5 5 3 4 5 5 4 4 5 7 7 6 6 6 6 6
2 1 0 9 14 7 4 5 6 8 7 3 3 2 1 1 1 1 1 1 0 1 1 3 3 2 2 1 1 1 2 2 3 2 0 1 1 0 0 0 0 1 2 2 3 0 2 2 2 4 2 1 1 0 2 3 1 1 3 3 1 2 2 1 1 2 2 1 1 2 5 6 6 4 5 6 6 5 6 5 5 7 7 6 6 6 5 6
2 3 1 11 14 3 3 9 8 5 4 3 2 2 1 1 1 2 2 1 1 0 1 4 4 3 3 1 1 2 2 2 2 1 1 1 1 1 1 1 1 1 1 3 3 1 1 2 1 3 2 2 3 1 1 2 3 3 1 1 2 2 3 2 3 3 2 2 3 2 4 9 6 2 4 5 4 4 5 4 5 7 7 7 7 6 6 6
4 3 2 12 13 1 6 8 4 3 4 2 1 1 1 2 2 1 2 2 2 1 1 3 3 2 3 2 1 2 2 2 1 1 1 1 1 1 0 1 1 1 1 1 1 1 2 3 1 2 3 3 3 1 1 1 3 4 1 1 3 3 4 4 2 3 1 1 1 3 1 8 6 2 4 5 4 4 4 4 6 7 7 7 8 7 7 6
3 1 2 13 11 3 8 7 2 4 4 1 1 1 2 2 2 1 1 2 2 1 2 2 1 2 1 1 2 2 1 1 1 1 1 1 0 1 1 2 1 1 2 1 1 1 1 3 2 3 3 3 4 2 0 1 3 2 1 0 3 2 3 5 4 2 2 2 2 2 2 7 6 2 3 4 4 5 5 5 7 7 7 6 7 8 7 6
2 2 2 12 9 2 5 4 2 2 1 1 2 2 2 1 2 1 0 1 1 1 2 1 0 2 1 1 3 2 0 0 1 1 1 2 1 0 1 3 2 0 1 0 1 0 1 2 2 3 5 6 6 5 4 3 1 1 2 1 2 3 5 4 2 3 1 4 5 3 4 7 5 3 2 3 3 5 6 6 6 7 7 7 7 7 6 6
2 0 2 9 12 8 4 4 6 5 3 2 4 2 1 2 1 1 1 1 0 1 2 1 0 2 3 2 4 3 2 2 1 1 1 1 1 1 2 3 2 1 1 1 0 1 1 1 2 3 2 2 2 3 3 2 1 1 1 1 2 4 6 3 2 3 2 3 5 5 6 7 7 5 5 5 5 6 8 7 6 6 6 7 7 7 6 6
3 2 2 6 10 9 4 1 5 6 5 4 4 1 2 3 1 1 2 1 0 1 2 1 1 3 3 2 4 3 3 3 1 1 2 1 1 1 2 3 1 1 2 1 2 3 3 1 1 5 5 5 5 5 3 1 1 2 2 3 4 4 4 5 4 2 4 3 2 7 7 8 13 11 8 8 7 6 8 9 8 7 6 6 6 6 6 6
2 2 1 3 4 5 4 4 5 4 4 4 3 2 3 3 1 1 1 0 1 1 2 2 1 2 2 3 3 2 1 2 2 2 2 1 1 1 2 1 1 2 1 0 2 3 4 1 1 4 6 7 6 6 3 2 3 5 4 4 6 5 4 6 5 5 5 3 5 8 5 4 12 12 10 12 11 8 8 9 8 7 6 6 5 6 7 7
2 2 1 0 1 2 3 3 4 6 5 4 3 2 4 3 2 2 1 1 1 0 1 1 1 2 5 5 3 2 1 1 1 1 2 1 1 1 2 0 0 3 3 2 2 3 5 1 2 3 5 8 5 4 2 3 4 4 5 6 6 8 9 10 9 7 7 5 9 5 3 6 13 14 14 14 11 9 9 9 7 7 7 6 6 6 7 7
3 3 1 2 2 3 1 1 4 6 6 4 3 2 4 5 5 3 1 2 1 2 1 1 4 4 5 4 4 4 3 1 1 2 3 2 2 2 1 1 1 2 2 2 2 1 3 2 2 2 5 8 5 3 2 4 3 3 6 8 8 9 12 12 9 6 7 10 13 9 9 14 16 14 15 14 10 7 7 7 6 7 7 5 5 6 7 7
2 3 2 3 4 2 1 2 4 5 4 3 3 2 4 7 6 3 1 3 2 2 2 3 4 4 4 3 5 2 4 4 1 2 5 5 1 3 3 3 3 2 3 2 1 2 0 1 1 3 3 7 4 2 1 2 4 6 8 8 8 7 8 9 8 5 6 11 12 9 11 15 13 9 10 10 7 4 5 6 7 7 5 5 6 6 7 7
3 3 4 5 4 2 2 2 3 4 2 1 2 3 3 6 8 4 2 1 2 4 5 6 6 5 3 3 4 1 4 5 2 2 5 6 2 2 2 2 5 4 1 1 0 1 1 1 1 4 3 6 3 2 3 3 3 7 10 9 10 8 6 7 6 6 8 7 5 3 5 9 8 3 4 7 6 4 6 7 7 7 5 5 6 7 7 7
5 3 3 5 3 2 1 1 3 3 2 2 1 3 2 4 6 5 3 0 1 2 2 5 7 5 3 3 4 4 3 6 4 2 4 5 4 4 3 4 6 5 4 4 1 0 3 3 1 3 1 6 5 2 4 6 4 5 8 8 12 10 6 4 4 8 10 7 4 4 7 7 4 2 4 7 6 6 7 6 5 7 6 5 6 7 7 8
Wind_Direction
52 58 65 76 82 78 73 69 67 61 59 57 59 62 59 52 38 51 201 214 212 205 181 161 129 96 50 36 26 27 36 52 46 32 31 1 350 352 346 352 354 32 106 110 104 90 71 56 59 66 65 55 22 347 21 24 23 47 59 76 97 120 130 160 170 169 130 132 151 80 66 117 127 339 161 34 24 27 30 20 350 357 14 72 240 315 317 297
53 58 63 73 81 81 78 71 65 58 55 52 52 55 57 51 34 322 234 228 214 217 204 198 191 197 353 350 351 2 30 48 40 23 9 356 359 4 7 23 28 50 113 108 99 87 76 32 56 65 55 37 8 360 19 12 25 58 85 76 95 164 92 113 154 145 108 131 128 76 72 91 109 278 57 58 357 8 46 17 2 16 353 348 341 308 307 296
58 62 66 76 82 84 83 72 67 59 53 52 52 53 64 61 46 42 237 228 218 218 211 217 234 262 304 304 319 332 8 43 40 6 352 356 4 8 19 44 48 66 113 104 95 91 93 79 72 72 65 55 28 23 39 10 17 44 79 76 71 176 77 24 93 101 96 128 121 93 77 61 28 302 59 111 63 25 42 346 18 26 315 311 315 313 308 302
64 68 71 78 82 83 82 80 78 61 49 53 54 51 61 73 55 50 57 125 220 224 227 238 256 282 297 302 316 315 343 47 36 342 349 355 3 11 32 65 72 90 108 103 98 96 92 79 72 71 75 63 18 55 44 354 38 44 48 89 139 146 79 11 65 97 82 103 116 119 93 64 347 352 82 131 80 28 321 231 183 183 255 276 306 324 320 307
66 72 75 79 81 80 82 95 90 55 44 53 56 52 50 54 69 61 62 68 80 104 110 99 72 36 14 335 299 277 329 58 346 338 350 354 7 20 51 84 97 104 105 103 98 91 84 70 64 58 59 51 6 55 32 345 63 74 34 68 90 97 92 21 52 90 84 90 92 91 92 90 331 19 74 130 107 120 246 228 214 221 233 259 304 320 319 314
67 73 77 81 83 83 82 91 82 43 45 55 56 55 44 44 96 102 80 74 75 83 88 90 86 77 69 62 73 81 77 86 323 338 352 359 15 31 54 91 99 104 113 106 89 80 75 55 59 60 57 60 42 59 44 0 47 94 51 30 42 61 95 85 35 56 71 90 78 88 110 86 70 52 61 121 122 225 248 261 254 260 273 291 305 315 323 323
56 65 78 86 90 87 77 70 62 50 55 58 59 56 41 46 120 134 112 84 70 71 81 89 91 87 77 71 72 68 74 63 334 346 2 10 26 49 66 93 102 114 115 92 81 80 76 68 75 78 79 77 62 74 82 54 50 81 86 39 41 55 63 50 59 57 61 79 67 116 90 40 74 92 31 58 282 271 292 308 297 287 294 298 298 315 331 326
52 69 86 94 95 81 61 58 60 61 61 58 67 64 47 51 85 107 81 70 42 53 78 86 90 78 51 57 66 60 56 358 345 359 16 25 40 63 81 91 100 106 91 77 85 93 82 80 91 102 78 81 97 97 91 72 51 58 91 79 49 53 48 54 70 61 63 71 50 70 62 10 31 131 66 332 283 287 312 320 319 310 314 320 318 326 330 335
70 84 91 93 88 69 57 60 61 63 64 66 75 73 55 53 65 72 58 45 27 14 274 4 4 15 39 61 75 62 18 350 356 14 29 40 55 76 94 81 91 96 76 63 83 95 83 89 96 104 100 101 102 77 53 79 58 39 92 93 78 73 45 53 63 45 51 49 36 66 47 329 299 303 99 270 269 300 325 332 347 353 339 333 333 323 318 334
84 88 89 87 80 70 64 61 61 66 70 74 76 67 59 61 68 73 71 64 62 67 71 57 43 86 82 78 78 69 351 357 20 30 39 53 64 73 76 74 89 92 78 67 70 80 93 108 106 102 105 96 72 32 17 80 105 110 98 89 81 87 43 40 62 24 24 32 42 88 74 301 317 348 255 267 279 337 343 338 350 2 329 306 310 303 277 249
90 89 87 84 78 69 63 61 65 74 76 72 66 57 65 78 77 80 85 83 83 84 84 82 88 92 78 67 76 77 356 17 36 37 48 59 61 65 69 76 87 90 87 73 67 85 98 110 118 108 95 89 83 62 53 90 114 110 104 87 60 68 51 31 53 14 11 60 58 95 150 299 332 23 221 253 313 6 354 327 333 349 312 300 303 285 230 223
97 96 90 82 74 65 59 60 71 80 79 70 62 60 72 90 84 80 90 94 90 86 83 80 84 83 71 62 66 65 22 35 45 48 57 64 65 67 73 82 85 85 91 79 61 87 104 116 111 90 92 140 103 78 89 125 109 98 89 85 46 38 46 14 12 351 7 77 38 100 358 304 317 274 237 263 327 3 8 335 328 336 310 309 310 279 231 235
107 101 91 81 70 63 56 55 67 80 85 70 60 69 81 92 82 71 85 95 89 79 73 74 86 82 73 62 38 50 42 43 58 66 66 70 73 75 77 82 84 81 87 84 75 83 94 100 95 88 88 110 103 106 120 92 74 78 48 78 51 17 25 357 344 327 355 45 322 108 334 294 272 263 259 300 343 10 4 330 319 326 313 307 300 286 260 251
113 104 93 83 72 63 54 54 65 70 87 77 67 81 91 89 77 73 83 85 85 86 83 84 88 82 78 89 42 49 47 53 65 62 61 72 76 77 78 81 84 83 85 85 82 84 90 90 87 84 62 72 103 109 92 37 40 65 36 42 44 57 344 319 339 349 15 30 21 85 101 278 278 277 277 317 2 38 348 308 307 315 304 293 283 282 275 258
120 112 101 89 76 67 58 59 70 74 83 87 84 93 94 85 77 80 88 88 87 87 80 74 79 81 77 80 52 44 47 54 49 36 40 63 71 75 76 78 81 82 83 83 83 82 80 79 76 72 48 35 72 88 63 28 30 43 71 2 3 84 319 310 331 12 48 353 22 73 229 276 283 279 280 320 15 48 334 300 301 300 291 284 278 275 275 268
130 122 110 89 67 60 60 66 77 85 88 88 92 103 104 90 81 83 90 88 78 79 74 60 71 89 87 61 32 31 38 34 22 23 37 51 60 73 70 77 81 79 78 73 78 77 65 68 70 62 64 27 44 78 64 48 17 6 76 73 343 46 17 323 338 13 27 331 359 44 281 276 303 295 300 335 24 38 334 300 295 290 284 278 277 278 281 284
146 138 111 47 19 19 39 72 85 89 91 90 88 90 89 84 90 97 101 93 70 71 80 52 57 88 71 346 23 13 2 3 6 19 40 47 49 57 59 75 69 64 71 53 52 53 39 50 69 47 56 37 39 70 68 51 0 358 48 90 10 14 34 331 324 355 17 36 350 19 272 257 283 296 304 325 26 26 322 296 293 290 289 285 285 286 283 287
195 242 305 324 327 333 355 77 114 100 94 93 91 87 78 72 79 76 62 98 56 32 59 21 17 85 50 358 13 324 313 338 4 19 29 43 48 50 47 49 20 11 44 31 29 31 16 29 61 63 31 19 24 38 86 117 157 120 97 109 86 2 79 326 291 339 9 27 5 10 338 282 298 306 302 305 25 16 288 280 289 287 289 287 289 285 279 284
264 286 296 311 314 314 334 116 160 145 117 106 101 91 73 64 70 62 48 57 57 19 52 349 3 105 81 358 324 315 328 347 9 20 19 15 27 45 38 36 38 39 43 16 13 17 25 41 42 49 5 351 348 356 86 149 147 135 140 122 115 103 263 264 261 304 359 20 349 358 309 289 299 305 297 297 3 357 286 291 293 286 286 283 285 277 274 278
282 290 296 310 314 311 313 160 171 177 172 169 169 41 33 52 57 43 34 52 63 66 99 350 23 87 59 7 330 336 2 32 35 22 15 6 344 16 18 17 38 51 46 15 1 357 53 68 43 11 314 304 301 302 331 105 110 113 105 89 97 116 287 279 282 301 337 45 299 281 284 284 281 281 273 287 333 322 290 295 290 287 287 280 279 275 271 266
319 295 315 334 340 350 318 180 180 184 187 206 221 359 138 138 86 149 10 60 51 47 81 72 71 81 66 33 356 354 2 44 30 16 12 6 350 19 2 7 47 42 11 322 335 346 51 70 25 330 288 288 306 293 152 78 73 82 100 93 65 82 265 272 267 305 343 62 259 313 322 289 272 270 266 279 304 275 258 261 272 280 285 283 275 272 272 273
9 341 344 13 57 67 87 139 157 173 182 187 159 110 116 129 119 136 135 90 32 23 69 72 65 64 53 51 14 10 62 34 15 5 6 5 15 45 4 33 67 49 340 358 30 27 51 57 338 317 288 292 8 42 82 76 68 59 83 100 69 21 285 277 270 326 353 176 268 340 338 288 269 264 264 254 237 244 233 221 242 261 279 286 275 272 281 289
19 17 30 60 82 86 92 107 119 131 139 138 125 113 116 121 126 128 102 101 68 3 31 43 57 33 14 36 14 20 61 43 1 343 355 4 29 64 68 56 70 67 12 31 89 91 67 13 321 329 34 78 44 26 48 67 64 51 57 88 234 300 337 279 305 340 339 41 292 306 302 284 288 296 278 254 231 260 262 240 242 229 244 267 272 271 271 280
24 40 67 98 98 95 97 106 115 117 120 124 117 118 129 131 135 131 92 90 81 21 32 56 101 61 34 19 6 24 77 57 101 336 351 13 64 42 75 83 75 62 31 56 86 89 83 291 319 56 52 85 76 34 37 57 38 21 71 100 183 296 169 239 294 334 331 1 20 330 324 303 325 336 287 292 324 298 315 310 285 255 242 265 283 275 250 251
30 50 94 128 117 109 109 109 116 118 117 118 117 125 135 140 153 140 85 62 35 334 12 72 96 45 36 3 359 15 114 50 77 336 352 25 57 45 79 89 76 65 293 68 78 80 69 303 92 69 40 60 84 50 26 59 51 6 42 120 165 188 193 284 317 3 17 354 355 21 13 302 317 317 269 309 346 308 328 337 301 293 293 293 288 279 269 259
37 55 116 147 142 130 124 116 124 124 115 113 128 140 144 153 179 166 91 66 32 328 1 19 32 18 359 349 348 359 88 19 337 12 13 22 22 105 85 355 52 104 217 109 74 88 45 5 60 89 73 60 70 65 360 88 92 31 319 136 146 143 113 348 358 39 44 294 313 51 86 267 315 317 277 314 333 302 313 313 288 292 304 302 279 272 280 281
40 68 122 160 161 152 147 155 152 141 121 143 148 151 158 157 159 114 71 50 15 331 4 341 347 17 352 342 350 93 87 325 292 31 23 19 357 72 74 9 43 76 201 102 65 54 1 2 28 52 69 61 59 56 327 118 105 327 264 121 129 116 114 72 74 87 193 265 327 29 95 202 295 286 280 312 317 305 308 294 289 291 287 291 285 277 278 275
41 91 117 155 177 186 207 163 160 157 139 157 156 149 158 169 216 37 78 68 353 5 21 325 352 17 343 359 22 82 115 324 62 5 359 25 21 47 75 51 111 90 8 103 113 24 11 11 20 45 62 62 68 258 252 130 96 265 215 140 152 127 152 143 100 101 39 17 325 332 49 101 272 276 303 335 312 300 290 271 276 281 275 282 286 283 282 278
43 96 115 122 164 179 175 157 158 150 140 147 144 142 166 199 350 54 79 104 330 16 157 325 6 343 340 5 21 44 35 13 68 322 337 30 34 49 85 113 125 102 39 82 126 169 73 332 179 103 76 82 181 231 212 143 93 254 167 128 45 62 68 70 89 122 49 26 267 277 10 47 274 283 310 346 265 263 267 264 264 267 268 270 272 276 278 284
46 79 123 128 138 140 145 146 138 142 144 142 138 142 179 35 58 61 61 127 30 322 288 19 6 335 9 29 8 13 30 16 350 339 352 27 20 35 84 156 107 91 49 57 79 96 344 288 202 101 66 155 159 187 198 172 194 117 93 7 6 15 14 39 52 91 59 339 256 252 330 71 305 285 259 225 219 209 213 252 262 267 277 265 256 260 265 272
46 60 105 141 151 150 147 130 133 147 147 138 144 98 39 42 63 88 110 279 49 322 6 27 350 3 34 54 18 1 23 0 343 11 22 9 3 19 46 43 54 60 36 39 44 7 2 8 340 338 22 108 108 79 23 15 49 93 77 21 353 327 345 14 352 36 70 287 264 262 314 98 216 266 240 236 250 213 177 182 215 245 267 263 256 257 252 254
47 51 69 105 149 161 146 137 143 148 146 139 135 50 74 54 26 92 277 328 2 329 26 11 312 20 37 50 33 353 351 1 7 44 46 23 35 25 24 45 62 32 18 10 26 19 13 359 319 307 313 102 104 80 3 356 27 56 57 55 35 342 358 355 323 348 212 249 260 268 342 164 232 246 239 249 258 235 211 198 199 219 243 257 263 266 264 260
50 52 62 79 107 119 117 130 141 141 147 147 85 49 78 78 37 200 292 337 30 308 49 61 325 20 47 43 20 338 356 13 2 38 59 79 70 34 2 64 103 73 117 182 68 35 13 326 346 359 333 50 103 122 28 321 32 53 89 88 72 49 25 320 290 317 283 274 277 283 316 279 272 266 231 236 247 233 228 229 222 222 236 255 265 270 282 280
57 60 68 77 90 101 107 119 130 133 144 117 66 52 66 73 181 173 304 255 237 336 36 72 353 20 48 56 344 315 48 33 350 32 25 35 56 24 345 358 33 66 103 99 114 110 71 308 3 24 313 14 57 147 155 140 79 78 159 119 104 135 105 279 255 263 292 295 297 308 301 208 256 293 218 227 265 270 259 260 261 255 249 260 278 281 280 277
59 61 66 71 77 89 101 111 119 119 103 67 65 62 84 139 217 152 176 228 224 1 2 66 61 48 23 13 346 336 102 6 14 49 30 41 79 36 358 329 351 36 80 70 253 111 87 255 261 319 294 39 25 293 107 99 86 193 163 89 68 154 132 146 197 182 223 314 300 287 233 218 227 276 277 305 310 300 299 298 298 287 281 292 293 282 275 275
63 56 57 55 57 70 90 107 111 72 34 75 68 56 127 194 204 156 171 176 150 149 135 36 56 64 15 343 356 4 31 337 36 48 25 44 111 292 357 274 312 38 86 117 181 117 79 275 288 340 346 47 19 259 42 41 113 71 72 96 143 136 117 107 219 26 74 40 288 283 266 290 329 322 324 357 337 308 314 311 304 292 301 317 294 284 288 286
95 63 53 39 36 47 75 95 88 42 59 78 81 90 189 208 172 177 208 157 146 119 101 94 27 56 97 328 326 324 343 338 27 53 38 24 97 183 292 273 244 97 140 138 165 169 133 208 299 41 111 332 311 224 20 1 133 87 84 165 161 95 98 99 20 354 38 35 284 319 283 295 345 327 327 6 345 305 295 289 301 300 303 304 286 284 288 285
152 94 59 29 23 27 37 59 69 75 76 69 79 131 165 161 177 190 212 248 161 74 87 127 116 34 193 150 292 304 335 327 4 49 83 292 77 156 169 282 157 111 279 135 117 105 117 189 297 299 157 312 353 39 338 330 60 112 130 145 108 93 71 35 53 5 7 318 292 312 300 271 218 230 303 22 284 281 282 292 305 290 282 284 283 290 297 301
170 105 50 14 14 20 23 125 108 66 69 74 98 155 145 145 229 217 208 320 127 90 91 166 133 65 164 148 167 273 350 35 88 61 95 86 55 156 163 219 184 124 304 116 130 230 60 91 274 270 197 308 4 37 284 306 1 31 27 11 32 118 148 61 73 144 223 294 295 317 326 287 232 218 192 203 231 235 245 273 276 262 262 264 267 284 297 304
154 68 311 359 9 21 47 69 63 51 62 100 156 161 76 149 226 317 359 3 93 109 115 162 139 99 160 185 185 173 37 73 122 96 188 135 77 264 127 122 190 309 325 49 90 50 25 73 252 293 320 275 296 341 198 182 156 45 22 2 8 76 116 151 37 98 133 167 218 323 317 281 251 210 185 212 232 213 206 221 243 257 264 265 268 276 287 296
97 53 259 351 0 347 78 53 46 49 80 101 120 120 72 130 141 359 341 8 84 236 168 141 129 127 154 162 218 173 73 58 103 97 186 170 73 359 359 111 185 300 342 53 55 23 44 96 217 293 309 223 234 280 181 174 166 153 151 184 156 115 108 93 330 323 101 138 172 157 293 278 264 207 205 228 238 232 228 226 249 268 271 276 282 277 278 287
74 64 278 348 357 91 90 53 31 52 89 96 74 104 72 94 103 24 335 8 59 47 64 97 99 109 141 130 138 155 108 90 101 72 159 193 111 185 328 76 188 276 94 92 343 281 132 93 87 260 240 224 261 292 151 155 129 123 125 142 124 119 117 117 251 261 127 103 155 115 277 272 264 214 226 252 260 258 249 233 254 274 276 279 288 290 289 282
73 146 301 353 354 121 83 55 353 28 55 200 313 21 26 70 106 60 352 12 33 52 43 47 59 77 140 154 116 133 121 145 170 114 159 186 137 213 331 19 290 310 75 108 286 276 94 71 34 295 289 317 330 331 3 43 83 97 302 138 124 133 129 139 172 183 151 180 157 85 282 268 276 270 239 252 267 275 261 237 249 272 283 285 288 294 299 293
99 198 302 1 1 146 96 92 144 65 54 215 52 36 357 54 96 86 68 6 16 117 95 91 26 68 114 116 95 115 244 110 125 43 126 152 137 296 356 355 316 347 56 170 190 244 345 62 57 4 351 345 347 352 343 344 63 197 245 174 140 114 103 121 137 80 312 219 155 133 251 257 274 317 319 310 321 304 280 247 234 254 282 296 294 293 297 298
70 130 276 5 30 66 101 150 145 131 158 123 88 87 39 59 62 88 144 125 358 155 118 109 110 83 96 90 78 75 20 36 86 19 83 116 327 332 356 338 319 148 221 261 248 118 153 132 104 94 64 309 301 300 296 303 288 256 178 167 195 138 125 152 123 79 283 241 150 168 231 266 288 311 328 322 324 308 292 283 262 252 265 278 286 294 298 300
80 59 310 347 26 55 73 95 98 115 155 138 108 118 92 91 332 308 115 99 29 135 86 89 140 93 79 76 72 56 13 21 57 104 125 162 271 279 327 343 47 150 210 220 43 74 111 100 115 148 183 211 211 228 232 134 185 242 216 195 200 179 141 124 110 151 200 177 201 226 232 280 292 295 305 304 299 288 285 292 291 282 272 267 271 283 289 290
91 92 23 335 358 40 50 27 52 94 153 143 120 155 143 126 359 7 87 133 172 128 55 65 131 130 141 135 106 96 329 1 35 92 130 177 218 281 308 345 71 334 300 176 25 74 100 329 274 171 225 236 220 231 226 139 219 220 207 208 194 179 155 145 176 207 159 115 279 252 197 241 278 288 297 297 299 296 287 287 289 292 292 286 288 294 297 300
61 123 126 111 24 53 53 40 71 86 88 89 88 116 134 138 158 167 177 8 40 187 100 80 274 203 180 168 137 132 143 10 3 141 142 163 153 14 341 325 291 336 6 22 340 92 115 238 221 177 265 265 249 258 215 185 231 222 204 212 191 175 183 194 211 200 156 189 251 245 168 245 271 286 291 287 287 287 282 282 286 291 292 296 306 308 304 306
71 104 65 12 97 147 146 26 93 91 73 70 88 126 157 165 182 203 180 83 14 305 143 187 253 215 177 158 116 133 181 166 331 234 178 154 163 154 113 214 251 348 47 63 341 79 132 218 199 159 290 287 289 310 218 195 238 258 232 223 204 192 198 210 226 206 192 237 259 271 287 283 277 274 275 279 282 276 277 286 287 284 287 297 304 301 299 300
125 147 159 59 70 114 48 25 77 83 51 53 101 148 166 165 180 213 178 125 144 221 183 203 219 166 145 129 103 121 219 173 87 251 173 142 162 202 192 191 165 58 37 75 348 339 147 248 170 112 319 298 307 14 74 179 209 245 251 234 215 211 214 225 240 221 219 255 266 277 286 282 277 265 259 271 289 299 291 289 282 274 276 287 291 292 294 293
107 135 141 106 71 353 352 33 73 94 84 25 140 161 178 188 189 172 121 117 154 172 187 184 164 127 86 112 123 271 238 176 140 272 170 143 143 190 189 160 143 134 118 136 63 7 108 172 54 62 0 291 299 20 326 299 250 255 265 241 212 208 209 216 221 200 199 221 242 277 276 262 264 292 286 276 288 297 279 274 282 285 269 255 272 285 286 284
101 95 113 106 86 344 15 64 48 99 174 245 164 158 196 220 199 152 109 47 97 98 188 167 147 118 90 149 198 248 225 166 143 105 129 116 88 91 87 79 103 126 161 151 99 37 125 127 116 69 345 273 283 314 299 319 333 286 269 221 194 196 210 227 246 223 206 184 162 210 236 237 241 308 310 292 289 286 274 258 264 284 281 261 259 268 273 274